This is the latest recevied weather packets stored in our database for station/object HB9TJM-8. If no packets are shown the sender has not sent any weather packets the latest 10 day(s).
| Time | Temp. | Humidity | Pressure | Rain* | Wind** | Luminosity | Snow |
|---|---|---|---|---|---|---|---|
| 1777824774 | 13.89° C | 55% | 1016.7 hPa | 0 mm | - | 63 W/m² | - |
| 1777824467 | 13.89° C | 58% | 1016.7 hPa | 0 mm | - | 61 W/m² | - |
| 1777824160 | 13.89° C | 58% | 1016.6 hPa | 0 mm | - | 74 W/m² | - |
| 1777823853 | 13.89° C | 57% | 1016.4 hPa | 0 mm | - | 81 W/m² | - |
| 1777823545 | 13.89° C | 56% | 1016.6 hPa | 0 mm | - | 83 W/m² | - |
| 1777823238 | 13.89° C | 57% | 1016.2 hPa | 0 mm | - | 110 W/m² | - |
| 1777822930 | 13.89° C | 56% | 1016.7 hPa | 0 mm | - | 138 W/m² | - |
| 1777822623 | 13.33° C | 55% | 1016.5 hPa | 0 mm | - | 144 W/m² | - |
| 1777822315 | 13.33° C | 56% | 1016.5 hPa | 0 mm | - | 141 W/m² | - |
| 1777822008 | 13.89° C | 55% | 1016.9 hPa | 0 mm | - | 152 W/m² | - |
| 1777821392 | 13.89° C | 54% | 1016.7 hPa | 0 mm | - | 156 W/m² | - |
| 1777821084 | 13.89° C | 53% | 1016.2 hPa | 0 mm | - | 172 W/m² | - |
| 1777820777 | 14.44° C | 53% | 1016.4 hPa | 0 mm | - | 194 W/m² | - |
| 1777820469 | 14.44° C | 53% | 1016.5 hPa | 0 mm | - | 199 W/m² | - |
| 1777820162 | 15° C | 53% | 1016.6 hPa | 0 mm | - | 197 W/m² | - |
| 1777819854 | 15° C | 52% | 1016.2 hPa | 0 mm | - | 203 W/m² | - |
| 1777819546 | 15° C | 51% | 1016.6 hPa | 0 mm | - | 205 W/m² | - |
| 1777818930 | 15° C | 50% | 1016.7 hPa | 0 mm | - | 219 W/m² | - |
| 1777818623 | 15° C | 49% | 1016.6 hPa | 0 mm | - | 212 W/m² | - |
| 1777818316 | 15.56° C | 48% | 1016.8 hPa | 0 mm | - | 205 W/m² | - |
| 1777818008 | 15.56° C | 47% | 1017.5 hPa | 0 mm | - | 196 W/m² | - |
| 1777817700 | 15.56° C | 46% | 1017.1 hPa | 0 mm | - | 197 W/m² | - |
| 1777817085 | 16.11° C | 51% | 1016.7 hPa | 0 mm | - | 223 W/m² | - |
| 1777816778 | 15.56° C | 53% | 1016.9 hPa | 0 mm | - | 246 W/m² | - |
| 1777816470 | 15.56° C | 52% | 1017 hPa | 0 mm | - | 257 W/m² | - |
* Rain latest hour (hover to see other rain measurements)
** Current wind speed in m/s (hover to see current wind gust speed)